This is the latest recevied weather packets stored in our database for station/object VO2AGO. If no packets are shown the sender has not sent any weather packets the latest 1 day(s).
| Time | Temp. | Humidity | Pressure | Rain* | Wind** | Luminosity | Snow |
|---|---|---|---|---|---|---|---|
| 1778189749 | 4.44° C | - | - | - | 0 m/s | 268 W/m² | - |
| 1778186600 | 5° C | - | - | - | 0 m/s | 562 W/m² | - |
| 1778184349 | 5.56° C | - | - | - | 0 m/s | 1049 W/m² | - |
| 1778182999 | 5.56° C | - | - | - | 0 m/s | 952 W/m² | - |
| 1778182549 | 6.11° C | - | - | - | 0 m/s | 1040 W/m² | - |
| 1778180300 | 7.22° C | 93% | 100.4 hPa | 0 mm | 0 m/s | 1106 W/m² | - |
| 1778178499 | 7.78° C | 81% | 100.4 hPa | 0 mm | 0 m/s | 1145 W/m² | - |
| 1778177149 | 7.78° C | 75% | 100.4 hPa | 0 mm | 0 m/s | 1354 W/m² | - |
| 1778173549 | 9.44° C | - | - | - | 0 m/s | 1125 W/m² | - |
| 1778172199 | 10.56° C | 60% | 100.4 hPa | 0 mm | 0 m/s | 1843 W/m² | - |
| 1778171749 | 10.56° C | - | - | - | 0 m/s | 1111 W/m² | - |
| 1778171299 | 11.11° C | 60% | 100.4 hPa | 0 mm | 0 m/s | 1926 W/m² | - |
| 1778170849 | 10° C | 64% | 100.4 hPa | 0 mm | 0 m/s | 1834 W/m² | - |
| 1778169949 | 9.44° C | - | - | - | 0 m/s | 1124 W/m² | - |
| 1778169499 | 9.44° C | - | - | - | 0 m/s | 1116 W/m² | - |
| 1778169049 | 8.89° C | - | - | - | 0 m/s | 1112 W/m² | - |
| 1778168599 | 8.33° C | - | - | - | 0 m/s | 1101 W/m² | - |
| 1778167699 | 7.22° C | 87% | 100.5 hPa | 0 mm | 0 m/s | 1838 W/m² | - |
| 1778164099 | 7.78° C | 80% | 100.6 hPa | 0 mm | 0 m/s | 1669 W/m² | - |
| 1778162301 | 9.44° C | 69% | 100.6 hPa | 0 mm | 0 m/s | 1687 W/m² | - |
| 1778161399 | 10° C | 67% | 100.6 hPa | 0 mm | 0 m/s | 1812 W/m² | - |
| 1778160499 | 10° C | - | - | - | 0 m/s | 1102 W/m² | - |
| 1778159149 | 7.78° C | 87% | 100.7 hPa | 0 mm | 0 m/s | 1812 W/m² | - |
| 1778158249 | 6.67° C | 97% | 100.7 hPa | 0 mm | 0 m/s | 1369 W/m² | - |
| 1778157799 | 6.67° C | - | - | - | 0 m/s | 1260 W/m² | - |
* Rain since midnight (hover to see other rain measurements)
** Current wind speed in m/s (hover to see current wind gust speed)